Regional Weather Roundup
Issued by NWS

Home | Current Version | Previous Version | Text Only | Print | Product List | Glossary On
Versions: 1 2 3 4 5 6 7 8 9 10 11 12 13 14 15 16 17 18 19 20 21 22 23 24 25 26 27 28 29 30 31 32 33 34 35 36 37 38 39 40 41 42 43 44 45 46 47 48 49 50
000
ASUS44 KOUN 252300
RWROK

WEATHER ROUNDUP FOR OKLAHOMA
NATIONAL WEATHER SERVICE NORMAN OK
600 PM CDT SAT APR 25 2015

NOTE: "FAIR" INDICATES FEW OR NO CLOUDS BELOW 12,000 FEET WITH NO
      SIGNIFICANT WEATHER AND/OR OBSTRUCTIONS TO VISIBILITY.

OKZ001>007-009>012-014-015-017-260000-
NORTHWEST OKLAHOMA AND THE PANHANDLE

CITY           SKY/WX    TMP DP  RH WIND       PRES   REMARKS
GAGE           MOSUNNY   83  37  19 W7        29.63S
GUYMON         MOSUNNY   81  32  17 E13G18    29.63F
$$

OKZ016-021>023-033>039-044-045-260000-
SOUTHWEST OKLAHOMA

CITY           SKY/WX    TMP DP  RH WIND       PRES   REMARKS
LAWTON/REGL    SUNNY     84  43  23 W6        29.62F
LAWTON/FT SILL SUNNY     83  46  27 VRB7      29.61S
FREDERICK      SUNNY     84  46  26 W9        29.59S
CLINTON        SUNNY     81  46  29 S9        29.64S
HOBART         SUNNY     81  45  28 SW13      29.62F
$$

OKZ018>020-024>031-260000-
CENTRAL OKLAHOMA

CITY           SKY/WX    TMP DP  RH WIND       PRES   REMARKS
OKLAHOMA CITY  MOSUNNY   82  50  32 W9        29.62R
OKC/WILEY POST SUNNY     82  52  35 W7        29.62R
OKC/TINKER AFB SUNNY     83  49  30 VRB2      29.61S
STILLWATER     SUNNY     82  49  31 NW9       29.60S
GUTHRIE        SUNNY     82  48  30 W9        29.61R
$$

OKZ008-013-054>072-260000-
NORTHEAST OKLAHOMA

CITY           SKY/WX    TMP DP  RH WIND       PRES   REMARKS
TULSA          SUNNY     83  51  33 W13       29.57S
TULSA/JONES    SUNNY     82  49  31 NW7       29.58R
PONCA CITY     SUNNY     80  48  32 N8        29.61R
BARTLESVILLE   SUNNY     80  53  39 CALM      29.60R
MUSKOGEE       SUNNY     84  48  28 W13       29.59R
$$

OKZ032-040>043-046>053-073>077-260000-
SOUTH CENTRAL/SOUTHEAST OKLAHOMA

CITY           SKY/WX    TMP DP  RH WIND       PRES   REMARKS
MCALESTER      SUNNY     84  55  36 SW8       29.61S
$$




USA.gov is the U.S. government's official web portal to all federal, state and local government web resources and services.